sat.trackr.live / text

‹ back to catalog

LEMUR-2-KREMPEL-BRO1

NORAD 63357 · 2025-061G

PAYLOAD ACTIVE UNKNOWN

§ Identity

Operator
Country
US
Launch date
2025-03-26
Launch site
RLLB
Launch vehicle
Mass (kg)
RCS (m²)

Purposes: earth_obs

External: N2YO · Heavens-Above · Gunter

§ Orbital elements

Epoch: 2026-09-19T21:46:54.647616Z

Period
95.04 min
Inclination
97.5726°
Eccentricity
0.0016654
Mean motion
15.15197338 rev/d
Perigee alt
508.9 km
Apogee alt
531.9 km
Semi-major
6,898.5 km
B*
1.3756e-4
RAAN
238.3363°
Arg perigee
283.1544°
Mean anomaly
76.7829°
Rev number
8,197

§ Raw data

LEMUR-2-KREMPEL-BRO11 63357U 25061G   26262.90757694  .00002522  00000+0  13756-3 0  99982 63357  97.5726 238.3363 0016654 283.1544  76.7829 15.15197338 81976

JSON: /api/v1/satellites/63357 · /tle

For live sub-satellite position, see the globe view (requires WebGL).

§ Visibility from observer

Set your observer location to see the next 7 days of passes ≥ 10°. The values pass through the URL so the page stays shareable.

No JS? Fill the form by hand. The geolocation button needs JavaScript.